Погода в Чаинске

Россия / Томская область     57°55′46″N   82°35′43″E
темп.,
°C
ветер,
м/с
пор.,
м/с
влажн.,
%
обл.,
%
осадки,
мм/ч
давл.,
гПа
погр.,
м
11 мая, вт
вт1101:00+8ссв4106495 0.0 1024384
04:00+6ссв3879100 0.0 1023249
07:00+6ссв387934 0.0 1023296
10:00+11ссв46625 0.0 1024696
13:00+15ссв45485 0.0 10231186
16:00+17ссв333986 0.0 10222382
19:00+14с255093 0.0 1022392
22:00+9ссз22655 0.0 102332
12 мая, ср
ср1201:00+7ссз2469100 0.0 102360
04:00+6с12785 0.0 102210
07:00+7ссз12694 0.0 102279
10:00+13сз12441 0.0 1020720
13:00+17з23323 0.0 10191834
16:00+18з222737 0.0 10172134
19:00+17зсз233068 0.0 10171449
22:00+11ююз2246100 0.0 101617
13 мая, чт
чт1301:00+9ссз2786100 0.0 1016191
04:00+9сз379585 0.2 1016329
07:00+8сз359073 0.3 1016332
10:00+7сз3590100 0.1 1016349
13:00+11сз346765 0.3 10161021
16:00+12ссз245587 0.1 10151516
19:00+13ссз3646100 0.1 10151596
22:00+8з2254100 0.0 101522
14 мая, пт
пт1401:00+9зсз3107592 0.0 1014619
04:00+7ссз7128191 0.2 10151006
07:00+4ссз61163100 0.3 10181428
10:00+6ссз6104949 0.0 10191546
13:00+9ссз610312 0.0 10211810
16:00+11ссз693039 0.0 10212004
19:00+10сз4835100 0.0 10221802
22:00+8зсз2347100 0.0 102289
15 мая, сб
сб1501:00+5ююз3779100 0.6 1020300
04:00+6юз51680100 1.2 1015761
07:00+10зюз5158357 1.2 1013694
10:00+15зсз5117299 0.0 10131154
13:00+12ссз4108596 0.1 1016707
16:00+13с466778 0.0 10171006
19:00+11зсз134793 0.0 10191315
22:00